Hourly Data Report for October 08, 2016

All times are specified in Local Standard Time (LST). Add 1 hour to adjust for Daylight Saving Time where and when it is observed.

QIKIQTARJUAQ A
NUNAVUT

67°32'48.000" N
64°01'54.000" W
5.50 m
2400577
YVM

Download Data

Hourly Data (October 2016)
Hourly Data Report for October 8, 2016
Temp Definition
°C
Dew Point Temp Definition
°C
Rel Hum Definition
%
Wind Dir Definition
10's deg

Wind Spd Definition
km/h
Visibility Definition
km
Stn Press Definition
kPa
Hmdx Definition


Wind Chill Definition


Weather Definition


TIME
00:00 Legend Double Dagger -3.1 -5.9 81 16 4 16.1 101.61   -5 LegendNANA
01:00 Legend Double Dagger -3.5 -6.5 80 16 8 16.1 101.60   -7 LegendNANA
02:00 Legend Double Dagger -3.2 -6.7 77 LegendMM 4 16.1 101.57   -5 LegendNANA
03:00 Legend Double Dagger -3.7 -7.0 78 15 9 16.1 101.51   -7 LegendNANA
04:00 Legend Double Dagger -3.1 -7.6 72 18 15 16.1 101.46   -8 LegendNANA
05:00 Legend Double Dagger -2.5 -7.6 68 18 21 16.1 101.41   -9 LegendNANA
06:00 Legend Double Dagger -2.5 -7.5 69 19 21 16.1 101.36   -9 LegendNANA
07:00 Legend Double Dagger -3.2 -7.4 73 15 5 16.1 101.33   -5 LegendNANA
08:00 Legend Double Dagger -1.4 -6.7 67 20 13 16.1 101.28   -6 LegendNANA
09:00 Legend Double Dagger -1.2 -6.3 68 13 4 16.1 101.19   -3 LegendNANA
10:00 Legend Double Dagger -0.8 -5.5 70 16 8 16.1 101.08   -4 LegendNANA
11:00 Legend Double Dagger -0.6 -5.7 69 21 9 16.1 100.98   -4 LegendNANA
12:00 Legend Double Dagger -0.3 -5.5 68 22 9 16.1 100.92   -3 LegendNANA
13:00 Legend Double Dagger -0.1 -5.7 66 19 13 16.1 100.85   -4 LegendNANA
14:00 Legend Double Dagger 0.1 -5.4 66 18 13 16.1 100.79     LegendNANA
15:00 Legend Double Dagger 0.1 -5.1 68 21 11 16.1 100.72     LegendNANA
16:00 Legend Double Dagger -0.1 -4.6 72 20 5 16.1 100.66   -2 LegendNANA
17:00 Legend Double Dagger -0.1 -3.9 76 21 9 16.1 100.66   -3 Snow
18:00 Legend Double Dagger -0.4 -3.6 79 18 5 12.9 100.63   -2 Snow
19:00 Legend Double Dagger -0.4 -2.3 87 25 8 16.1 100.62   -3 Snow
20:00 Legend Double Dagger -0.8 -2.9 86   0 16.1 100.60     Snow
21:00 Legend Double Dagger -0.7 -2.4 88 19 4 16.1 100.59   -2 Snow
22:00 Legend Double Dagger -1.0 -1.6 96 22 9 16.1 100.54   -4 Snow
23:00 Legend Double Dagger -1.0 -1.1 99 20 9 6.4 100.51   -4 Snow

Notes on Data Quality.

Legend

  • E = Estimated
  • M = Missing
  • NA = Not Available
  • ‡ = Partner data that is not subject to review by the National Climate Archives
Date modified: